Location: Holbach
(51.5399°N, 10.6036°E)
Time: 23:05:47
(UTC+00:00)

Cosmos 1092 Rocket - Pass Details

Date: 23 June 2021
Orbit: 955 x 994 km, 82.9° (Epoch: 29 July)

Event Time Altitude Azimuth Distance (km) Brightness Sun altitude
Exits shadow 00:41:43 16° 182° (S) 2,267 5.3 -12.9°
Maximum altitude 00:46:44 81° 98° (E) 975 4.0 -12.6°
Drops below altitude 10° 00:52:56 10° 12° (NNE) 2,706 7.8 -12.3°
Sets 00:55:26 0° 11° (NNE) 3,660 8.9 -12.1°
